Regional Weather Roundup
Issued by NWS

Home | Current Version | Previous Version | Graphics & Text | Print | Product List | Glossary On
Versions: 1 2 3 4 5 6 7 8 9 10 11 12 13 14 15 16 17 18 19 20 21 22 23 24 25 26 27 28 29 30 31 32 33 34 35 36 37 38 39 40 41 42 43 44 45 46 47 48 49 50
000
ASUS43 KFSD 051310
RWRSD

WEATHER ROUNDUP FOR SOUTH DAKOTA
NATIONAL WEATHER SERVICE SIOUX FALLS SD
700 AM CST THU MAR 05 2015

NOTE: "FAIR" INDICATES FEW OR NO CLOUDS BELOW 12,000 FEET WITH NO
SIGNIFICANT WEATHER AND/OR OBSTRUCTIONS TO VISIBILITY.


SDZ001>005-009-010-012>017-051400-
NORTHWEST AND NORTH CENTRAL SOUTH DAKOTA

CITY           SKY/WX    TMP DP  RH WIND       PRES   REMARKS
BUFFALO          N/A      6  -3  66 S6        30.00F WCI  -4
FAITH            N/A     -1  -6  79 S17       30.14F WCI -22
MOBRIDGE       PTCLDY    -1  -7  75 SE10      30.22F WCI -17
$$

SDZ012>016-024>037-041>051-057-063-072>074-051400-
SOUTHWEST AND SOUTH CENTRAL SOUTH DAKOTA

CITY           SKY/WX    TMP DP  RH WIND       PRES   REMARKS
RAPID CTY ARPT PTCLDY     1  -4  79 CALM      30.13F
PIERRE         MOCLDY    -7 -11  83 CALM      30.29F
CUSTER         PTCLDY    16  -7  35 W3        30.02R
ELLSWORTH AFB  PTCLDY     2  -4  73 NW7       30.11S WCI -10
PHILIP         MOCLDY    -7 -14  71 CALM      30.25S
PINE RIDGE     PTCLDY    -3  -9  75 NW5       30.18S WCI -13
SPEARFISH      FAIR      23   0  36 MISG      30.08R
WINNER         FAIR       7  -3  64 SW15      30.30F WCI -10
$$

SDZ004>011-016>023-039-040-051400-
NORTHEAST SOUTH DAKOTA

CITY           SKY/WX    TMP DP  RH WIND       PRES   REMARKS
ABERDEEN       MOCLDY   -15 -21  74 S8        30.38F WCI -32
WATERTOWN      MOCLDY   -16 -20  82 S5        30.36F WCI -29
SISSETON         N/A     -9 -15  75 SW5       30.39F WCI -20
$$

SDZ017-020-022-023-036>040-048>070-051400-
SOUTHEAST SOUTH DAKOTA

CITY           SKY/WX    TMP DP  RH WIND       PRES   REMARKS
SIOUX FALLS    MOCLDY    -8 -14  74 CALM      30.45R
HURON          MOCLDY    -6 -12  75 S8        30.41F WCI -21
CHAMBERLAIN    PTCLDY    -8 -13  81 CALM      30.34S
MITCHELL       MOCLDY    -5 -10  79 S8        30.44S WCI -20
YANKTON        PTCLDY    -6  -9  84 CALM      30.48S
$$

ABBREVIATIONS USED IN REMARKS
   TC - TEMPERATURE IN CELSIUS
  WCI - WIND CHILL INDEX
   HX - HEAT INDEX
  VSB - VISIBILITY



USA.gov is the U.S. government's official web portal to all federal, state and local government web resources and services.